Location: Oroua River
(40.4333°S, 175.4333°E)
Time: 12:26:43
(UTC+00:00)

ARIANE 5 R/B - Pass Details

Date: 03 February 2023
Orbit: 748 x 794 km, 98.8° (Epoch: 30 March)

Event Time Altitude Azimuth Distance (km) Brightness Sun altitude
Exits shadow 15:05:35 10° 34° (NE) 2,299 4.8 -22.8°
Reaches altitude 10° 15:05:36 10° 34° (NE) 2,288 4.8 -22.8°
Maximum altitude 15:10:28 51° 109° (ESE) 964 3.3 -22.2°
Drops below altitude 10° 15:15:28 10° 183° (S) 2,343 5.6 -21.6°
Sets 15:17:51 0° 188° (S) 3,285 6.3 -21.3°
